Location: Bazugues
(43.4465°N, 0.3432°E)
Time: 11:13:04
(UTC+00:00)

NOSS 3-2 (C) - Pass Details

Date: 12 January 2026
Orbit: 672 x 1536 km, 63.4° (Epoch: 2 January)

Event Time Altitude Azimuth Distance (km) Brightness Sun altitude
Rises 17:27:39 0° 323° (NW) 3,890 6.8 -7.9°
Reaches altitude 10° 17:30:07 10° 324° (NW) 3,045 6.3 -8.3°
Maximum altitude 17:37:38 86° 54° (NE) 1,329 4.2 -9.6°
Drops below altitude 10° 17:46:37 10° 144° (SE) 3,602 6.3 -11.1°
Sets 17:49:45 0° 145° (SE) 4,634 6.9 -11.6°
